| time (UTC) | temp C | wind direction | speed KPH | gust KPH | rain 1hr cm | rain 24hr cm | rain mn cm | humidity % | barometer mb |
| 20260502204502 | 19 | 170 | 3.2 | 0.0 | 0.00 | 0.00 | 0.00 | 40 | 1010.6 |
| 20260502203002 | 19 | 190 | 3.2 | 0.0 | 0.00 | 0.00 | 0.00 | 40 | 1010.6 |
| 20260502201502 | 20 | 190 | 3.2 | 0.0 | 0.00 | 0.00 | 0.00 | 37 | 1010.7 |
| 20260502200002 | 20 | 200 | 3.2 | 0.0 | 0.00 | 0.00 | 0.00 | 37 | 1010.7 |
| 20260502194502 | 21 | 200 | 3.2 | 0.0 | 0.00 | 0.00 | 0.00 | 33 | 1010.7 |
| 20260502193002 | 21 | 200 | 3.2 | 0.0 | 0.00 | 0.00 | 0.00 | 33 | 1010.7 |
| 20260502191503 | 22 | 200 | 4.8 | 0.0 | 0.00 | 0.00 | 0.00 | 30 | 1010.6 |
| 20260502190002 | 22 | 200 | 4.8 | 0.0 | 0.00 | 0.00 | 0.00 | 30 | 1010.6 |
| 20260502184502 | 23 | 200 | 4.8 | 0.0 | 0.00 | 0.00 | 0.00 | 28 | 1010.6 |
| 20260502183002 | 23 | 190 | 8.0 | 0.0 | 0.00 | 0.00 | 0.00 | 28 | 1010.6 |
| 20260502181502 | 25 | 190 | 8.0 | 0.0 | 0.00 | 0.00 | 0.00 | 26 | 1010.7 |
| 20260502163002 | 25 | 200 | 11.3 | 0.0 | 0.00 | 0.00 | 0.00 | 24 | 1011.5 |
| 20260502161503 | 25 | 200 | 11.3 | 0.0 | 0.00 | 0.00 | 0.00 | 23 | 1012.0 |
| 20260502151502 | 26 | 200 | 12.9 | 0.0 | 0.00 | 0.00 | 0.00 | 24 | 1012.8 |
| 20260502123002 | 24 | 190 | 14.5 | 0.0 | 0.00 | 0.00 | 0.00 | 29 | 1015.0 |
| 20260502121502 | 23 | 190 | 14.5 | 0.0 | 0.00 | 0.00 | 0.00 | 29 | 1015.4 |
| 20260502114502 | 23 | 190 | 14.5 | 0.0 | 0.00 | 0.00 | 0.00 | 30 | 1015.8 |
| 20260502113002 | 23 | 190 | 14.5 | 0.0 | 0.00 | 0.00 | 0.00 | 30 | 1015.8 |
| 20260502111502 | 22 | 200 | 14.5 | 0.0 | 0.00 | 0.00 | 0.00 | 30 | 1016.3 |
| 20260502110002 | 22 | 200 | 14.5 | 0.0 | 0.00 | 0.00 | 0.00 | 30 | 1016.3 |
| 20260502104503 | 22 | 180 | 12.9 | 0.0 | 0.00 | 0.00 | 0.00 | 33 | 1016.4 |
| 20260502101502 | 22 | 180 | 12.9 | 0.0 | 0.00 | 0.00 | 0.00 | 34 | 1016.8 |
| 20260502091502 | 20 | 180 | 11.3 | 0.0 | 0.00 | 0.00 | 0.00 | 37 | 1017.3 |
| 20260502071502 | 15 | 170 | 4.8 | 0.0 | 0.00 | 0.00 | 0.00 | 52 | 1017.9 |
| 20260502070002 | 15 | 180 | 4.8 | 0.0 | 0.00 | 0.00 | 0.00 | 52 | 1017.9 |
| 20260502064502 | 13 | 180 | 4.8 | 0.0 | 0.00 | 0.00 | 0.00 | 58 | 1018.0 |
| 20260502063002 | 13 | 160 | 3.2 | 0.0 | 0.00 | 0.00 | 0.00 | 58 | 1018.0 |
| 20260502061502 | 12 | 160 | 3.2 | 0.0 | 0.00 | 0.00 | 0.00 | 62 | 1018.1 |
| 20260502060002 | 12 | 180 | 1.6 | 0.0 | 0.00 | 0.00 | 0.00 | 62 | 1018.1 |
| 20260502054502 | 10 | 180 | 1.6 | 0.0 | 0.00 | 0.00 | 0.00 | 70 | 1018.1 |
| 20260502053002 | 10 | 180 | 4.8 | 0.0 | 0.00 | 0.00 | 0.00 | 70 | 1018.1 |
| 20260502051502 | 7 | 170 | 1.6 | 0.0 | 0.00 | 0.00 | 0.00 | 80 | 1018.1 |
| 20260502050002 | 7 | 170 | 1.6 | 0.0 | 0.00 | 0.00 | 0.00 | 80 | 1018.1 |
| 20260502044502 | 7 | 170 | 1.6 | 0.0 | 0.00 | 0.00 | 0.00 | 83 | 1018.0 |
| 20260502043002 | 7 | 180 | 1.6 | 0.0 | 0.00 | 0.00 | 0.00 | 83 | 1018.0 |
| 20260502041502 | 7 | 120 | 3.2 | 0.0 | 0.00 | 0.00 | 0.00 | 86 | 1018.2 |
| 20260502040002 | 7 | 120 | 3.2 | 0.0 | 0.00 | 0.00 | 0.00 | 86 | 1018.2 |
| 20260502034502 | 7 | 110 | 1.6 | 0.0 | 0.00 | 0.00 | 0.00 | 83 | 1018.3 |
| 20260502033002 | 7 | 110 | 1.6 | 0.0 | 0.00 | 0.00 | 0.00 | 83 | 1018.3 |
| 20260502031502 | 8 | 110 | 1.6 | 0.0 | 0.00 | 0.00 | 0.00 | 84 | 1018.3 |
| 20260502030004 | 8 | 140 | 1.6 | 0.0 | 0.00 | 0.00 | 0.00 | 84 | 1018.3 |